Location: Bremen
(53.0793°N, 8.8017°E)
Time: 12:27:22
(UTC+02:00)

Transit 2A Rocket - Pass Details

Date: 28 June 2024
Orbit: 582 x 910 km, 66.7° (Epoch: 19 July)

Event Time Altitude Azimuth Distance (km) Brightness Sun altitude
Rises 00:34:20 0° 294° (WNW) 3,359 8.9 -12.8°
Reaches altitude 10° 00:37:19 10° 310° (NW) 2,479 8.4 -12.9°
Maximum altitude 00:41:42 22° 359° (N) 1,850 8.0 -13.0°
Drops below altitude 10° 00:46:15 10° 48° (NE) 2,586 8.2 -13.1°
Sets 00:49:28 0° 64° (ENE) 3,545 8.7 -13.2°
